Regional Weather Roundup
Issued by NWS

Home | Current Version | Previous Version | Graphics & Text | Print | Product List | Glossary Off
Versions: 1 2 3 4 5 6 7 8 9 10 11 12 13 14 15 16 17 18 19 20 21 22 23 24 25 26 27 28 29 30 31 32 33 34 35 36 37 38 39 40 41 42 43 44 45 46 47 48 49 50

000
ASUS43 KMKX 200910
RWRWI

WISCONSIN REGIONAL WEATHER ROUNDUP
NATIONAL WEATHER SERVICE MILWAUKEE/SULLIVAN WI
300 AM CST SAT JAN 20 2018

NOTE: "FAIR" INDICATES FEW OR NO CLOUDS BELOW 12,000 FEET WITH NO
SIGNIFICANT WEATHER AND/OR OBSTRUCTIONS TO VISIBILITY.

WIZ001-002-006>008-014>016-023>028-201000-
NORTHWEST WISCONSIN

CITY           SKY/WX    TMP DP  RH WIND       PRES   REMARKS
SUPERIOR ARPT  FAIR      30  27  90 SW8       29.72R WCI  22
ASHLAND        FAIR      33  27  78 SW9       29.71R WCI  25
HAYWARD        FAIR      19  14  81 CALM      29.73R HAZE
SIREN          FAIR      25  24  96 CALM      29.75R
CUMBERLAND     FAIR      25  23  93 CALM      29.74R
RICE LAKE      FOG       21  21  98 CALM      29.75S VSB<1/4
CHETEK         FAIR      19  18  94 CALM      29.74S FOG
LADYSMITH      FOG       17  16  94 CALM      29.74R VSB 3/4
EAU CLAIRE     FAIR      30  27  88 SW3       29.75R
MENOMONIE      FAIR      29  28  96 SW5       29.76R WCI  24
NEW RICHMOND   FAIR      21  20  95 W3        29.77R FOG
OSCEOLA        FOG       20  20 100 CALM      29.79R VSB 1/4
$$

WIZ003>005-009-010-017-018-201000-
NORTH CENTRAL WISCONSIN

CITY           SKY/WX    TMP DP  RH WIND       PRES   REMARKS
MANITOWISH WTR FAIR      27  27 100 SW5       29.67R WCI  22
ARBOR VITAE    FAIR      32  28  85 W5        29.68R WCI  27
WOODRUFF       FAIR      32  28  85 W5        29.68R WCI  27
RHINELANDER    FAIR      32  27  81 W7        29.68R WCI  26
EAGLE RIVER    FAIR      24  24 100 W6        29.66R WCI  17
LAND O LAKES   FAIR      27  25  93 CALM      29.67R
PHILLIPS       FAIR      19  19 100 CALM      29.70R FOG
TOMAHAWK       FAIR      29  25  85 CALM      29.70R
MEDFORD        FAIR      26  25  94 SW3       29.71R
MERRILL        FAIR      28  26  93 W6        29.71R WCI  22
$$

WIZ029-030-035-036-043>047-201000-
CENTRAL WISCONSIN

CITY           SKY/WX    TMP DP  RH WIND       PRES   REMARKS
WAUSAU         FAIR      32  27  81 W7        29.70R WCI  26
MOSINEE        FAIR      32  30  93 W8        29.73R WCI  25
MARSHFIELD     FAIR      30  28  92 W6        29.72R WCI  24
STEVENS POINT  FAIR      28  27  96 CALM      29.74R
WAUPACA        FAIR      37  29  74 W5        29.73R WCI  33
WAUTOMA        FAIR      29  26  89 SW3       29.75R
WISC RAPIDS    FAIR      27  24  89 CALM      29.75R
CAMP DOUGLAS   FAIR      26  26  99 CALM      29.75R
$$

WIZ011>013-019>022-031-037>040-048>050-201000-
NORTHEAST WISCONSIN

CITY           SKY/WX    TMP DP  RH WIND       PRES   REMARKS
ANTIGO         FAIR      29  26  88 W6        29.69R WCI  23
SHAWANO        FAIR      37  29  74 SW5       29.70R WCI  33
OCONTO         FAIR      36  28  75 W7        29.69R WCI  30
STURGEON BAY   FAIR      37  29  72 W10       29.70R WCI  30
GREEN BAY      FAIR      32  26  78 CALM      29.72R
MANITOWOC      FAIR      37  29  72 W13       29.72R WCI  29
APPLETON       FAIR      32  25  74 W8        29.71R WCI  25
CLINTONVILLE   FAIR      34  28  80 W6        29.71R WCI  29
OSHKOSH        FAIR      35  28  75 SW6       29.73R WCI  30
$$

WIZ032>034-041-042-053>061-201000-
SOUTHWEST WISCONSIN

CITY           SKY/WX    TMP DP  RH WIND       PRES   REMARKS
LA CROSSE      FAIR      29  26  89 CALM      29.78R
SPARTA         FAIR      23  23  98 CALM      29.78R
VIROQUA        FAIR      32  31  96 W6        29.76R WCI  26
BOSCOBEL       FAIR      29  25  85 CALM      29.79R
PRAIRIE DU CHI FAIR      29  25  83 CALM      29.79R
PLATTEVILLE    FAIR      31  28  91 SW5       29.79R WCI  26
$$

WIZ056-057-062-063-064-067-068-201000-
SOUTH CENTRAL WISCONSIN

CITY           SKY/WX    TMP DP  RH WIND       PRES   REMARKS
REEDSBURG      FAIR      32  28  83 SW3       29.76R
BARABOO/DELLS  FAIR      33  27  79 SW6       29.76R WCI  27
LONE ROCK      FAIR      29  26  89 CALM      29.79R
MINERAL POINT  FAIR      34  32  93 W3        29.77R
MADISON        FAIR      33  27  78 SW3       29.78R
MIDDLETON      FAIR      34  28  79 W3        29.78R
WATERTOWN      FAIR      32  29  88 SW6       29.78R WCI  26
MONROE         FAIR      34  28  80 SW10      29.78R WCI  26
JANESVILLE     FAIR      36  30  80 CALM      29.79R
$$

WIZ051-052-058>065-066-070>072-201000-
SOUTHEAST WISCONSIN

CITY           SKY/WX    TMP DP  RH WIND       PRES   REMARKS
MILWAUKEE      MOCLDY    39  29  67 W9        29.76R WCI  33
WAUKESHA       FAIR      34  28  80 W10       29.78R WCI  26
MILWAUKEE/TIMM FAIR      36  27  69 W13       29.77R WCI  27
RACINE         FAIR      38  29  70 SW10      29.78R WCI  31
BURLINGTON     FAIR      37  28  71 W7        29.79R WCI  31
KENOSHA        FAIR      38  28  67 W10       29.78R WCI  31
FOND DU LAC    FAIR      35  26  69 SW5       29.75R WCI  31
SHEBOYGAN      FAIR      37  30  75 W13       29.72R WCI  29
WEST BEND      FAIR      34  28  80 W10       29.75R WCI  26
JUNEAU         FAIR      30  26  84 SW7       29.77R WCI  23
$$

LSZ147-162-201000-
LAKE SUPERIOR

STATION/POSITION TIME  TEMP    WIND        PRES    WAVE
                       AIR SEA DIR/SP/G            HT/PER
                 (UTC) (F)     (DEG/KT/KT) (MB)    (FT/S)
DEVILS ISLAND    0900   38     270/ 14/ 15 1005.5R
SAXON HARBOR     0830   34     180/  5/  7 1005.4R
$$

LMZ867-665-643>646-201000-
LAKE MICHIGAN

STATION/POSITION TIME  TEMP    WIND        PRES    WAVE
                       AIR SEA DIR/SP/G            HT/PER
                 (UTC) (F)     (DEG/KT/KT) (MB)    (FT/S)
NORTHPORT PIER   0840   38     250/  6/ 17 1004.4R
KEWAUNEE LAKESHO 0848   38     290/  9/ 12 1005.0R
SHEBOYGAN LAKESH 0900   39     270/ 12/ 15 1006.9R
PORT WASHINGTON  0830   38     260/ 11/ 16 1007.8R
MILWAUKEE LAKESH 0850   40     270/ 13/ 16   N/A
KENOSHA   LAKESH 0900   40     250/ 13/ 17 1008.8
$$

TC  - TEMPERATURE IN CELSIUS
VSB - VISIBILITY IN STATUTE MILES
WCI - WIND CHILL INDEX
HX  - HEAT INDEX





USA.gov is the U.S. government's official web portal to all federal, state and local government web resources and services.